DW9568 Weather Reports


time (UTC)temp
C
wind
direction
speed
KPH
gust
KPH
rain 1hr
cm
rain 24hr
cm
rain mn
cm
humidity
%
barometer
mb
20260504050015 13 143 0.0 0.0 0.00 0.08 0.00 71 1005.6
20260504044520 13 207 0.0 0.0 0.00 0.08 0.08 72 1005.6
20260504043014 13 113 0.0 0.0 0.00 0.08 0.08 72 1005.5
20260504041515 13 146 0.0 0.0 0.00 0.08 0.08 72 1005.4
20260504040014 13 153 0.0 0.0 0.00 0.08 0.08 72 1005.5
20260504034512 13 175 0.0 0.0 0.00 0.08 0.08 71 1005.5
20260504033014 13 168 0.0 0.0 0.00 0.08 0.08 70 1005.6
20260504031512 14 169 0.0 0.0 0.00 0.08 0.08 69 1005.6
20260504030015 14 148 0.0 0.0 0.00 0.08 0.08 68 1005.5
20260504024514 15 173 0.0 0.0 0.00 0.08 0.08 67 1005.5
20260504023010 15 163 0.0 0.0 0.00 0.08 0.08 66 1005.5
20260504021513 15 164 0.0 0.0 0.00 0.08 0.08 64 1005.4
20260504020009 16 173 0.0 0.0 0.00 0.08 0.08 63 1005.3
20260504014508 16 169 0.0 0.0 0.00 0.08 0.08 61 1005.2
20260504013009 17 175 0.0 0.0 0.00 0.08 0.08 59 1005.1
20260504011518 17 182 0.0 0.0 0.00 0.08 0.08 58 1004.9
20260504010009 18 172 0.0 0.0 0.00 0.08 0.08 56 1004.9
20260504004508 18 213 0.0 0.0 0.00 0.08 0.08 53 1004.8
20260504003007 19 151 0.0 0.0 0.00 0.08 0.08 51 1004.9
20260504001506 20 203 0.0 0.0 0.00 0.08 0.08 50 1004.9
20260504000010 21 192 0.0 0.0 0.00 0.08 0.08 48 1004.9
20260503234507 21 244 0.0 6.4 0.00 0.08 0.08 45 1005.0
20260503233003 21 229 0.0 1.6 0.00 0.08 0.08 45 1005.0
20260503231502 21 211 0.0 0.0 0.00 0.08 0.08 46 1005.2
20260503230104 21 236 0.0 8.0 0.00 0.08 0.08 46 1005.3
20260503224558 21 250 0.0 9.7 0.00 0.08 0.08 46 1005.4
20260503223056 21 153 0.0 4.8 0.00 0.08 0.08 47 1005.5
20260503221554 21 229 0.0 9.7 0.00 0.08 0.08 46 1005.5
20260503220101 21 229 0.0 9.7 0.00 0.08 0.08 47 1005.7
20260503214551 21 221 0.0 14.5 0.00 0.08 0.08 45 1005.7
20260503213053 21 178 1.6 16.1 0.00 0.08 0.08 45 1005.8
20260503211549 21 198 0.0 12.9 0.00 0.08 0.08 45 1005.8
20260503210048 20 219 0.0 17.7 0.00 0.08 0.08 45 1005.9
20260503204545 20 213 1.6 19.3 0.00 0.08 0.08 46 1006.2
20260503203051 20 130 0.0 20.9 0.00 0.08 0.08 49 1006.6
20260503201544 19 163 1.6 20.9 0.00 0.08 0.08 49 1007.0
20260503200038 19 130 1.6 14.5 0.00 0.08 0.08 48 1007.4
20260503194535 18 197 0.0 24.1 0.00 0.08 0.08 48 1007.6
20260503193037 18 163 1.6 11.3 0.00 0.08 0.08 51 1008.0
20260503191537 18 159 1.6 24.1 0.00 0.08 0.08 48 1008.1
20260503190028 17 160 1.6 19.3 0.00 0.08 0.08 54 1008.2
20260503184525 16 176 1.6 11.3 0.00 0.08 0.08 59 1008.6
20260503183020 16 131 0.0 12.9 0.00 0.08 0.08 61 1008.6
20260503181517 15 111 1.6 22.5 0.00 0.08 0.08 63 1008.8
20260503180013 14 150 1.6 14.5 0.03 0.08 0.08 64 1009.0
20260503174509 13 130 1.6 17.7 0.03 0.08 0.08 64 1009.5
20260503173009 13 148 0.0 12.9 0.03 0.08 0.08 66 1009.9
20260503171505 13 115 1.6 16.1 0.03 0.08 0.08 67 1010.0
20260503160110 10 97 0.0 9.7 0.03 0.05 0.05 79 1011.8
20260503081510 7 171 0.0 0.0 0.00 0.00 0.00 62 1014.6
20260503071611 7 178 0.0 3.2 0.00 0.00 0.00 62 1014.9